Location: Mayly
(50.9832°N, 71.2930°E)
Time: 08:22:31
(UTC+00:00)

Daily predictions for brighter satellites

Satellite Brightness Start Highest point End
(mag) Time Altitude Azimuth Time Altitude Azimuth Time Altitude Azimuth
Cosmos 2219 Rocket 2.4 16:06:42 10° S 16:12:12 53° ESE 16:17:43 10° NE
Cosmos 2173 Rocket 4.3 16:08:27 10° NNW 16:14:50 74° W 16:21:10 10° S
BREEZE-M DEB (TANK) 3.0 16:14:29 10° SW 16:16:56 41° SSE 16:21:57 10° E
FALCON 9 DEB 2.8 16:15:02 10° WSW 16:18:07 72° SSE 16:21:14 10° ENE
FALCON 9 DEB 2.8 16:15:22 10° WSW 16:18:27 64° SSE 16:21:34 10° ENE
Cosmos 1025 Rocket 3.1 16:14:35 10° S 16:18:57 87° E 16:23:20 10° N
Cosmos 2016 Rocket 4.0 16:13:27 10° N 16:19:36 85° E 16:25:46 10° S
Cosmos 2228 4.1 16:15:40 10° N 16:19:40 33° ENE 16:23:39 10° SE
FALCON 9 DEB 3.5 16:16:50 10° W 16:20:15 67° N 16:23:40 10° ENE
Terra 2.6 16:16:12 10° SE 16:20:39 41° ENE 16:25:07 10° N
SPOT 3 Rocket 4.3 16:17:52 10° S 16:22:55 52° W 16:28:01 10° NNW
ARIANE 5 R/B 2.7 16:18:39 10° SSE 16:23:06 74° ENE 16:27:38 10° N
Cosmos 2333 Rocket 2.2 16:19:36 10° SSW 16:25:20 75° ESE 16:31:04 10° NNE
Cosmos 1486 Rocket 4.1 16:21:07 10° NNW 16:26:21 70° ENE 16:31:32 10° SSE
Cosmos 1867 3.7 16:23:53 10° NW 16:29:24 74° SW 16:34:50 10° SSE
Cosmos 1536 Rocket 3.6 16:28:42 10° S 16:33:07 68° E 16:37:32 10° NNE
Cosmos 389 Rocket 3.2 16:30:39 10° N 16:33:54 38° ENE 16:37:06 10° SE
Cosmos 1725 Rocket 4.1 16:29:57 10° N 16:36:10 86° W 16:42:23 10° S
JB-3 4.3 16:33:14 10° NNE 16:37:15 77° ESE 16:41:20 10° S
CENTAUR R/B 4.4 16:31:16 10° W 16:37:22 39° NNW 16:44:33 10° NE
Cosmos 2237 Rocket 3.2 16:33:10 10° SSE 16:37:52 28° ESE 16:42:35 10° NE
SL-16 R/B 4.2 16:37:36 10° ESE 16:38:32 10° E 16:39:29 10° E
Cosmos 2360 Rocket 3.3 16:33:05 10° SW 16:38:33 50° NW 16:44:03 10° NNE
Cosmos 1346 Rocket 3.6 16:36:30 10° SSE 16:40:09 35° E 16:43:50 10° NNE
Cosmos 2369 Rocket 4.4 16:37:56 10° N 16:41:48 18° NNE 16:45:39 10° ENE
SPOT 5 2.9 16:36:57 10° SSE 16:41:57 83° ENE 16:46:42 10° NNW
Meteor 2-5 Rocket 3.7 16:37:57 10° S 16:43:28 72° E 16:49:08 10° NNE
CARTOSAT-1 3.8 16:39:30 10° S 16:43:47 68° WSW 16:48:07 10° NNW
Cosmos 1354 Rocket 4.5 16:39:41 10° NNW 16:44:57 54° ENE 16:50:00 11° SE
Cosmos 2322 Rocket 4.3 16:39:57 10° WSW 16:45:03 32° NW 16:50:09 10° NNE
ERS-1 Rocket 3.0 16:44:05 10° SSE 16:49:08 86° WSW 16:54:13 10° NNW
SL-4 R/B 2.4 16:47:12 10° SW 16:51:09 40° SSE 16:54:49 10° E
Cosmos 1455 3.3 16:48:19 10° N 16:51:47 32° ENE 16:54:49 12° SE
Geosat 4.1 16:51:26 11° SSE 16:56:15 82° WSW 17:01:19 10° NNW
NOSS 0 Rocket 4.2 16:52:54 10° S 16:58:53 52° ESE 17:04:56 10° NE
Cosmos 1184 Rocket 4.5 16:58:22 13° SE 17:00:09 19° E 17:02:33 10° NE
Spot 2 Rocket 4.3 16:57:05 10° S 17:01:58 48° W 17:06:55 10° NNW
Lacrosse 5 rocket 2.4 16:59:37 10° W 17:03:07 42° NNW 17:06:34 10° NE
Meteor 2-10 Rocket 3.4 16:58:30 10° NNW 17:03:35 88° WSW 17:08:15 12° S
Meteor 1-24 Rocket 3.7 16:58:27 10° S 17:03:51 84° E 17:09:30 10° NNE
Cosmos 1300 3.8 17:00:38 10° NNW 17:04:14 40° W 17:07:48 10° SSW
Cosmos 1340 4.0 17:01:25 10° SW 17:04:59 40° WNW 17:08:35 10° N
BREEZE-M DEB (TANK) 2.2 17:02:29 10° SW 17:05:05 50° SSE 17:10:39 10° E
ATLAS CENTAUR R/B 4.0 17:05:51 10° W 17:08:08 14° WSW 17:10:27 10° SW
Cosmos 2278 Rocket 2.3 17:03:48 10° NNW 17:09:28 72° WSW 17:14:25 14° SSE
USA 267 4.0 17:03:54 10° E 17:10:16 56° N 17:16:38 10° WNW
Meteor 1-4 Rocket 4.3 17:15:02 10° NNE 17:17:42 20° ENE 17:20:03 12° ESE
COSMOS 2428 3.1 17:12:29 10° SW 17:18:12 69° WNW 17:23:58 10° NNE
Cosmos 1726 Rocket 3.6 17:16:48 10° N 17:21:18 82° E 17:24:49 16° SSE
Cosmos 1943 Rocket 3.2 17:16:42 10° NNW 17:21:52 38° NE 17:27:00 10° ESE
Lacrosse 4 Rocket 4.4 17:22:40 10° N 17:23:34 11° NNE 17:24:29 10° NNE
GENESIS II 4.1 17:19:51 10° SW 17:23:45 86° SE 17:27:41 10° NE
Resurs 01 Rocket 4.4 17:22:59 10° WSW 17:24:23 11° W 17:25:46 10° WNW
Cosmos 1503 Rocket 4.3 17:21:37 10° NNW 17:26:58 68° WSW 17:31:18 16° S
Cosmos 2058 Rocket 3.2 17:24:56 10° N 17:29:21 63° ENE 17:32:31 18° SSE
SJ 16-02 2.6 17:25:25 10° N 17:29:23 32° ENE 17:32:57 12° ESE
FALCON 9 DEB 3.3 17:28:12 10° W 17:31:19 64° N 17:34:27 10° ENE
Okean 1-7 Rocket 4.4 17:28:30 17° SSE 17:31:22 36° E 17:35:25 10° NNE
X-37B 2.0 17:31:02 10° SW 17:33:00 20° S 17:33:00 20° S
Cosmos 1606 Rocket 4.1 17:33:41 10° NNW 17:38:04 56° W 17:41:40 14° S
FALCON 9 DEB 3.5 17:39:07 10° W 17:42:11 57° N 17:45:14 10° ENE
Cosmos 1892 Rocket 3.6 17:43:58 16° S 17:47:32 86° E 17:52:02 10° N
Cosmos 1980 3.7 17:43:34 10° SSW 17:49:16 89° WNW 17:55:01 10° NNE
Cosmos 1513 Rocket 4.5 17:46:11 10° N 17:52:19 85° W 17:57:06 18° S
Meteor 1-21 Rocket 4.3 17:48:16 17° S 17:52:38 65° E 17:58:23 10° NNE
FALCON 9 DEB 3.5 17:50:46 10° W 17:53:51 56° N 17:56:55 10° ENE
ATLAS 3B R/B 3.7 17:47:35 10° WSW 17:53:58 49° NNW 18:00:39 10° NE
FALCON 9 DEB 3.5 17:51:07 10° W 17:54:12 57° N 17:57:18 10° ENE
Cosmos 2219 Rocket 3.9 17:51:14 10° WSW 17:56:25 35° NW 18:01:37 10° NNE
FALCON 9 DEB 3.4 17:53:56 10° WNW 17:57:21 68° N 18:00:45 10° E
Terra 3.3 17:54:23 10° SSW 17:58:31 30° W 18:02:43 10° NNW
NOSS 3-1 (C) 3.9 17:58:18 19° S 18:01:34 37° ESE 18:07:12 10° NE
H-2A R/B 4.3 17:59:04 10° N 18:03:00 46° WNW 18:06:55 10° SW
Cosmos 1441 Rocket 3.1 18:00:50 22° S 18:03:10 75° E 18:06:58 10° NNE
GEOS 3 Rocket 3.8 18:01:38 13° SE 18:06:25 75° NE 18:11:45 10° NW
Cosmos 2346 Rocket 4.5 18:03:16 18° S 18:08:02 78° E 18:14:16 10° NNE
Cosmos 1777 Rocket 4.1 18:03:14 10° NNW 18:08:32 70° WSW 18:12:02 21° S
Cosmos 2333 Rocket 4.3 18:05:18 10° W 18:10:11 28° NW 18:15:05 10° NNE
ALOS 2 3.0 18:08:20 21° SE 18:11:08 54° ENE 18:15:26 10° N
Cosmos 1626 Rocket 3.8 18:10:20 23° SSE 18:12:55 57° E 18:17:16 10° NNE
NOSS 2-3 (E) 4.5 18:11:31 24° SSE 18:13:02 30° ESE 18:17:10 10° ENE
NOSS 3-1 (A) 4.3 18:12:35 20° SSE 18:14:57 27° ESE 18:20:02 10° ENE
Elektron 1 3.6 18:11:43 10° NW 18:14:58 77° SW 18:16:18 29° SE
USA 215 3.8 18:11:27 10° ENE 18:17:26 37° SE 18:22:02 16° SSW
Cosmos-2242 4.1 18:13:22 10° N 18:17:27 36° ENE 18:20:12 18° SE
SL-16 R/B 2.3 18:17:25 19° S 18:21:29 60° ESE 18:27:04 10° NE
Cosmos 2237 Rocket 2.7 18:16:02 10° SW 18:21:35 59° NW 18:27:10 10° NNE
Cosmos 1602 Rocket 3.9 18:19:54 24° SSE 18:22:21 52° E 18:26:43 10° NNE
COBE Rocket 3.9 18:20:51 23° SSE 18:24:01 89° WSW 18:28:55 10° NNW
ATLAS CENTAUR R/B 3.5 18:19:21 10° SW 18:24:24 67° SE 18:37:50 10° ENE
Cosmos 2369 Rocket 2.7 18:21:25 10° NNW 18:27:06 59° NE 18:31:48 15° SE
Cosmos 1455 4.0 18:24:08 10° NW 18:27:14 24° W 18:29:42 13° SW
Cosmos 1703 3.7 18:27:01 19° SSW 18:29:39 58° WNW 18:33:35 10° N
SL-4 R/B 1.8 18:26:31 10° W 18:30:35 88° N 18:34:20 10° E
Cosmos 1758 Rocket 4.3 18:28:33 23° SE 18:30:45 39° E 18:34:51 10° NNE
Cosmos 1184 Rocket 4.5 18:31:08 12° SW 18:33:36 28° WNW 18:36:28 10° N
Cosmos 1634 Rocket 4.1 18:34:46 10° N 18:41:08 73° E 18:45:29 21° SSE
Lacrosse 5 rocket 3.0 18:39:33 10° WNW 18:42:47 31° N 18:46:02 10° ENE
SAR-Lupe-2 4.3 18:40:57 10° NNE 18:44:21 39° E 18:45:38 28° SE
Cosmos 1898 Rocket 4.0 18:40:05 10° NNW 18:45:16 57° ENE 18:49:10 17° SE
Cosmos 2278 Rocket 4.4 18:50:01 10° WNW 18:52:32 13° W 18:55:04 10° WSW
Meteor 1-4 Rocket 3.7 18:49:40 10° NNW 18:52:46 31° W 18:54:11 22° SW
USA 267 3.3 18:46:30 10° ESE 18:53:04 90° NE 18:59:40 10° WNW
NOSS 2-3 (D) 3.7 18:51:41 25° SSW 18:53:56 58° SE 18:58:45 10° NE
NOSS 8 (E) 4.4 18:54:54 39° S 18:55:34 47° SE 18:58:27 10° NE
Cosmos 1812 Rocket 3.8 18:52:40 10° NNW 18:56:59 60° W 18:59:16 26° SSW
Cosmos 1356 4.5 18:56:27 26° SE 18:57:31 32° E 19:00:36 10° NNE
Cosmos 2297 4.4 18:54:03 10° NW 18:59:19 41° WSW 19:02:24 22° SSW
Lacrosse 4 Rocket 2.9 18:59:47 10° NNW 19:03:32 32° NE 19:07:12 10° ESE
Cosmos 1943 Rocket 2.7 19:00:29 10° NW 19:05:42 45° WSW 19:08:40 24° S
EP 2 4.4 19:05:51 38° SSW 19:06:50 75° SE 19:09:57 10° NE
FALCON 9 DEB 3.2 19:04:06 10° WNW 19:07:14 66° N 19:10:21 10° E
SJ 16-02 2.3 19:03:59 10° NW 19:07:59 35° WSW 19:09:55 23° SSW
Cosmos 468 Rocket 4.3 19:07:16 25° S 19:10:03 53° ESE 19:15:10 10° NNE
USA 306 4.2 19:10:14 22° SE 19:10:25 22° SE 19:13:42 10° E
NOSS 2-3 (C) 3.5 19:07:47 21° SW 19:10:36 81° SE 19:15:39 10° NE
MTI 3.5 19:09:38 10° NNE 19:12:41 83° WNW 19:13:40 40° SSW
PSLV R/B 4.2 19:12:12 10° NNE 19:16:27 46° E 19:18:41 25° SSE
In-Cosmos 22 Rocket 4.3 19:14:06 24° S 19:17:24 67° E 19:22:46 10° NNE
FALCON 9 DEB 2.9 19:14:50 10° WNW 19:17:57 80° NNE 19:21:02 10° ESE
Cosmos 1763 Rocket 3.6 19:15:44 26° S 19:18:33 60° ESE 19:23:38 10° NNE
Cosmos 1932 4.4 19:15:03 10° NW 19:21:17 72° SW 19:25:52 19° SSE
Cosmos 1825 Rocket 3.5 19:23:49 27° SSW 19:26:12 86° WNW 19:30:39 10° N
Cosmos 1408 2.6 19:26:09 33° S 19:27:42 77° E 19:31:25 10° NNE
NOSS 8 (F) 4.2 19:26:31 26° SW 19:28:05 75° NW 19:31:03 10° NE
FALCON 9 DEB 2.8 19:26:30 10° WNW 19:29:38 87° NNE 19:32:44 10° ESE
FALCON 9 DEB 2.9 19:26:56 10° WNW 19:30:04 80° NNE 19:33:12 10° ESE
Cosmos 1943 3.5 19:28:24 24° S 19:31:38 55° ESE 19:37:10 10° NE
FALCON 9 DEB 3.4 19:30:54 10° WNW 19:34:10 44° SSW 19:34:55 37° S
Cosmos 1892 2.8 19:32:53 30° SSW 19:34:43 74° W 19:38:36 10° N
GP-B 3.8 19:31:47 10° N 19:36:03 46° W 19:38:32 22° SW
Cosmos 2098 Rocket 4.2 19:34:34 19° SSE 19:37:20 35° E 19:41:00 10° NNE
Cosmos 1656 Rocket 3.7 19:32:21 10° NNW 19:38:03 72° WSW 19:41:50 21° SSE
EO 1 Del DPAF 3.7 19:35:13 10° NNE 19:38:50 46° E 19:40:26 27° SSE
Cosmos 1603 3.7 19:40:52 23° SSW 19:44:25 70° ESE 19:50:03 10° NNE
USA 229 DEB 3.7 19:39:31 13° SW 19:45:24 85° NW 19:52:24 10° NE
USA 229 3.7 19:39:40 13° SW 19:45:30 86° NW 19:52:31 10° NE
Cosmos 1437 4.3 19:43:21 10° NNE 19:45:45 25° ENE 19:47:18 16° ESE
Meteor 2-2 Rocket 4.4 19:39:54 10° NNW 19:46:00 87° ENE 19:50:16 20° SSE
Cosmos 540 Rocket 3.6 19:44:28 25° S 19:47:21 60° ESE 19:52:25 10° NNE
ALOS 2 4.4 19:45:43 15° SW 19:47:48 20° W 19:51:02 10° NW
Cosmos 2058 3.2 19:46:38 27° SSE 19:48:42 58° E 19:52:45 10° NNE
NOSS 2-2 (C) 4.5 19:49:20 21° SE 19:50:06 22° ESE 19:53:01 10° ENE
Cosmos 1633 4.3 19:48:17 15° SE 19:50:08 23° E 19:52:58 10° NE
Thor Agena Rocket 3.7 19:45:03 10° NNE 19:50:17 70° WNW 19:53:42 21° SSW
Cosmos 1825 2.1 19:49:10 31° S 19:50:53 82° E 19:54:41 10° NNE
NOSS 3-1 (C) 3.9 19:46:35 10° WSW 19:52:05 58° NW 19:58:42 10° NE
Cosmos 1953 Rocket 3.7 19:51:14 26° SSW 19:53:39 70° WNW 19:58:07 10° N
Cosmos 921 Rocket 3.6 19:52:26 24° SSE 19:54:30 43° ESE 19:58:28 10° NNE
Cosmos-2242 4.4 19:51:09 10° NNW 19:54:53 27° W 19:57:02 19° SW
USA 307 3.5 19:53:58 28° S 19:55:30 39° SE 19:59:28 10° ENE
NOSS 8 (H) 4.3 19:54:09 26° WSW 19:55:41 68° NW 19:58:40 10° NE
Cosmos 1437 Rocket 2.7 19:51:51 10° NNW 19:55:43 72° W 19:57:30 29° S
BREEZE-M DEB (TANK) 1.6 19:51:58 10° W 19:56:13 65° S 19:58:28 10° E
USA 215 3.3 19:54:21 10° ENE 20:00:55 88° NNW 20:07:29 10° WSW
NOSS 3-1 (A) 3.6 19:59:58 12° SW 20:05:09 71° NW 20:11:48 10° NE
SL-16 R/B 3.7 20:00:55 10° WSW 20:05:58 32° NW 20:11:03 10° NNE
MOZ.5/SAFIR/RUBIN 5/SL-8 4.1 20:04:03 15° SSE 20:07:53 65° ENE 20:12:38 10° N
CREW DRAGON DEMO-1 DEB 2.3 20:08:14 17° W 20:09:58 75° N 20:12:23 10° E
SL-4 R/B 1.7 20:06:21 10° W 20:10:13 89° NNE 20:13:49 10° E
Cosmos 841 Rocket 3.5 20:07:04 23° SSW 20:10:17 78° ESE 20:15:27 10° NNE
Cosmos 2369 Rocket 3.3 20:05:57 10° NW 20:10:48 29° WSW 20:13:33 20° SSW
Cosmos 1842 Rocket 3.5 20:06:28 10° NNW 20:10:49 74° W 20:13:22 24° S
ATLAS 5 CENTAUR R/B 2.0 20:09:09 26° S 20:10:56 41° ESE 20:15:08 10° NE
USA 308 3.2 20:09:33 25° SSW 20:11:39 48° SE 20:15:44 10° ENE
SL-16 R/B 3.2 20:05:43 10° SE 20:11:41 53° ENE 20:17:40 10° N
Cosmos 1076 Rocket 4.0 20:09:18 21° SSE 20:11:52 50° E 20:15:59 10° NNE
Resurs 1-4 Rocket 3.2 20:13:27 10° NNE 20:18:21 36° E 20:22:29 14° SSE
Helios 1B rocket 4.3 20:16:30 10° NE 20:19:42 22° E 20:22:47 10° SE
Cosmos 1937 Rocket 4.3 20:16:32 10° NW 20:21:25 37° WSW 20:24:18 21° SSW
Cosmos 405 Rocket 3.6 20:19:56 21° SW 20:21:55 38° WNW 20:25:25 10° N
ADEOS II 4.1 20:18:13 10° NE 20:22:02 20° E 20:25:49 10° SE
Lacrosse 5 rocket 1.5 20:18:48 10° NW 20:22:21 60° NNE 20:25:57 10° ESE
CENTAUR R/B 4.0 20:15:03 10° NW 20:22:32 52° NNE 20:30:59 10° ESE
CZ-4C R/B 4.1 20:21:08 10° SE 20:23:42 14° ESE 20:26:29 10° ENE
Cosmos 2221 2.8 20:20:39 10° NNW 20:24:49 51° W 20:27:10 23° SSW
USA 290 2.4 20:24:08 29° S 20:25:32 60° ESE 20:28:42 10° NNE
USA 305 2.9 20:24:23 20° SW 20:27:10 62° SSE 20:31:23 10° ENE
Meteor 2-15 4.4 20:22:49 10° NNW 20:29:00 84° W 20:33:58 16° S
USA 267 3.8 20:31:04 12° SSE 20:36:34 36° SW 20:42:33 10° WNW
Lacrosse 4 Rocket 1.9 20:38:26 10° NW 20:42:14 37° WSW 20:44:21 21° S
FALCON 9 DEB 3.2 20:39:53 10° WNW 20:42:52 41° SSW 20:45:51 10° SE
UNK 3.9 20:41:13 11° SSE 20:45:42 73° ENE 20:50:21 10° N
Cosmos 1242 Rocket 3.6 20:43:42 10° NNW 20:46:57 32° W 20:48:38 21° SW
Cosmos 1814 Rocket 4.0 20:43:32 19° SSW 20:47:18 79° WNW 20:52:29 10° NNE
NOSS 2-2 (D) 3.0 20:45:24 23° SW 20:47:27 75° SE 20:51:18 10° NE
Helios 1A 3.5 20:46:28 21° SSW 20:48:58 44° W 20:53:00 10° NNW
USA 306 2.8 20:46:16 14° WSW 20:49:53 79° SSE 20:54:09 10° ENE
Cosmos 1606 3.4 20:46:24 10° NNW 20:49:59 39° W 20:52:02 21° SSW
CZ-2D R/B 2.4 20:44:56 10° NNE 20:50:06 61° ESE 20:54:22 15° S
Cosmos 1553 Rocket 4.3 20:43:57 10° N 20:50:14 66° ENE 20:56:22 10° SSE
NPP 4.2 20:46:55 10° NNE 20:52:13 53° E 20:56:51 13° S
FALCON 9 DEB 3.8 20:50:39 10° W 20:53:20 27° SW 20:54:04 24° S
Nadezhda 4 Rocket 4.5 20:52:48 16° SW 20:57:31 49° WNW 21:03:27 10° N
Cosmos 2026 Rocket 4.1 20:52:52 16° S 20:58:05 90° SW 21:04:31 10° N
Cosmos 2298 Rocket 4.1 20:53:37 10° NNW 20:58:55 66° WSW 21:04:09 10° S
Aureole 3 Rocket 3.8 20:59:19 10° NNW 21:03:20 45° W 21:07:38 15° SSW
Cosmos 1782 3.2 20:59:44 10° N 21:03:45 64° ENE 21:07:43 10° SSE
FALCON 9 DEB 4.0 21:02:25 10° W 21:04:59 24° SW 21:05:54 21° S
Cosmos 1125 Rocket 3.5 21:00:11 10° NNW 21:05:27 74° WSW 21:10:43 10° SSE
FALCON 9 DEB 3.8 21:02:50 10° W 21:05:33 27° SW 21:08:15 10° SSE
BREEZE-M DEB (TANK) 4.5 21:02:22 10° W 21:08:09 60° SSW 21:30:28 10° SE
Cosmos 2150 Rocket 4.1 21:03:36 10° NNW 21:08:43 58° WSW 21:13:53 10° S
Cosmos 1570 Rocket 4.4 21:04:33 15° SW 21:08:48 56° WNW 21:13:58 10° NNE
USA 281 4.3 21:04:00 10° ESE 21:10:15 49° NE 21:16:31 10° NNW
Cosmos 1151 Rocket 3.1 21:11:32 10° N 21:15:49 75° E 21:20:04 10° SSE
Cosmos 1943 4.5 21:10:52 10° WSW 21:15:59 34° NW 21:21:08 10° NNE
IRIDIUM 114 4.4 21:12:27 10° N 21:17:42 83° E 21:22:56 10° S
Cosmos 1437 4.4 21:16:01 10° NW 21:17:48 15° W 21:18:40 14° WSW
Cosmos 2098 Rocket 4.4 21:14:55 13° SW 21:18:22 27° WNW 21:21:47 10° NNW
Cosmos 1656 3.9 21:13:40 10° NNW 21:19:26 78° ENE 21:25:07 10° SSE
Meteor 1-29 3.7 21:20:51 10° NNE 21:24:10 47° E 21:27:21 11° S
Cosmos 1633 3.8 21:22:20 14° SW 21:24:46 28° WNW 21:27:54 10° N
NOSS 2-2 (E) 4.1 21:22:19 10° WSW 21:25:42 44° NW 21:29:41 10° NE
IRIDIUM 103 4.3 21:21:35 10° N 21:26:51 84° W 21:32:04 10° S
Cosmos 2292 Rocket 2.6 21:26:59 16° SSW 21:29:15 76° W 21:32:30 10° N
Cosmos 2151 3.6 21:29:28 14° SW 21:32:50 43° WNW 21:36:52 10° N
Genesis I 3.6 21:30:31 10° NW 21:34:34 72° NE 21:38:37 10° SE
Cosmos 2266 Rocket 4.5 21:29:00 10° S 21:34:56 58° E 21:40:51 10° NNE
BREEZE-M DEB (TANK) 2.7 21:32:43 10° W 21:35:01 63° S 21:41:15 10° ESE
USA 307 3.1 21:31:03 10° WSW 21:35:19 74° NNW 21:39:35 10° ENE
SL-19 R/B 4.2 21:30:21 10° NNE 21:35:41 87° ESE 21:41:11 10° SSW
ADEOS Rocket 3.3 21:29:40 10° S 21:36:44 75° WSW 21:43:06 10° NNW
ERBS 2.2 21:35:38 13° SW 21:38:23 73° SSE 21:41:38 10° ENE
Cosmos 1515 Rocket 4.1 21:35:26 10° N 21:39:51 61° ENE 21:44:15 10° SSE
NOSS 2-2 (C) 4.1 21:37:00 10° WSW 21:40:21 42° NW 21:44:13 10° NE
Meteor 2-3 Rocket 3.9 21:35:26 12° SSW 21:40:36 65° WNW 21:46:10 10° N
COSMOS 2406 4.5 21:37:11 10° S 21:42:13 34° ESE 21:47:17 10° NE
CREW DRAGON DEMO-1 DEB 2.0 21:41:10 10° W 21:43:35 76° SSW 21:46:00 10° ESE
Cosmos 1408 Rocket 4.3 21:39:18 10° S 21:43:38 53° E 21:48:00 10° NNE
USA 215 4.0 21:37:23 10° ENE 21:43:44 56° N 21:50:05 10° W
Cosmos 1933 4.4 21:40:32 10° NNW 21:44:06 29° W 21:47:25 11° SSW
Cosmos 1766 Rocket 3.6 21:40:14 10° SSW 21:44:40 83° WNW 21:49:11 10° N
IRIDIUM 106 4.5 21:39:59 10° N 21:45:08 61° W 21:50:16 10° SSW
NOSS 3-2 (A) 4.1 21:39:05 10° NW 21:46:27 70° SW 21:54:52 10° SSE
Cosmos 1697 Rocket 3.1 21:41:49 10° NNW 21:47:30 70° ENE 21:53:09 10° SE
SL-4 R/B 2.2 21:46:10 10° W 21:49:32 35° SSW 21:52:44 10° SE
USA 308 3.2 21:47:19 10° W 21:51:34 67° NNW 21:55:49 10° ENE
NOSS 3-2 (C) 4.1 21:44:26 10° NW 21:51:49 89° SW 22:00:18 10° SE
Alouette 2 Rocket 3.7 21:48:50 10° NNW 21:52:19 47° W 21:56:30 10° S
Helios 1B rocket 3.1 21:51:14 10° N 21:55:08 44° WNW 21:59:01 10° SW
SL-16 R/B 3.3 21:49:59 10° SSW 21:55:32 34° W 22:01:06 10° NNW
ATLAS 5 CENTAUR R/B 2.7 21:51:41 10° WSW 21:55:34 38° NNW 22:00:02 10° NE
Resurs 1-4 Rocket 2.9 21:53:16 10° N 21:58:15 41° WNW 22:03:12 10° SW
DELTA 2 DEB (DPAF) 4.2 21:54:39 10° S 21:59:03 60° WSW 22:03:28 10° NNW
Cosmos 2084 Rocket 3.9 21:57:23 10° SSW 22:01:11 48° SE 22:05:03 10° NE
Lacrosse 5 rocket 1.9 21:58:06 10° WNW 22:01:15 29° SW 22:04:28 10° SSE
Cosmos 1812 2.8 21:58:13 10° NNW 22:02:01 60° W 22:05:47 10° S
ADEOS II 2.2 21:57:00 10° NNE 22:02:16 72° WNW 22:07:30 10° SSW
SeaSat 1 4.0 21:58:10 10° NE 22:02:27 29° ESE 22:06:43 10° S
CBERS-1 4.2 22:00:07 10° NNE 22:05:18 81° ESE 22:10:26 10° SSW
Cosmos 1862 3.4 22:01:29 10° S 22:05:32 89° E 22:09:38 10° N
USA 305 3.4 22:02:58 10° W 22:07:11 61° N 22:11:25 10° ENE
AQUA 4.4 22:03:10 10° N 22:07:43 45° WNW 22:12:14 10° SW
Okean 3 Rocket 3.9 22:04:07 10° SSW 22:08:23 51° WNW 22:12:41 10° N
IDEFIX/ARIANE 42P 2.7 22:04:28 10° NNE 22:09:45 78° ESE 22:14:58 10° SSW
CZ-4C R/B 2.2 22:05:54 10° SW 22:10:52 76° SE 22:16:59 10° NE
IRS-1D 3.6 22:06:06 10° NNE 22:11:14 76° WNW 22:16:14 10° SSW
deb Kosmos-1763 4.0 22:09:23 10° SSW 22:12:54 88° WNW 22:16:28 10° NNE
CENTAUR R/B 3.2 22:05:49 10° NW 22:13:47 68° SW 22:22:33 10° SSE
Cosmos 1271 Rocket 3.7 22:11:17 10° NNW 22:14:33 29° W 22:17:50 10° SSW
Cosmos 773 Rocket 4.3 22:11:53 10° SSW 22:17:10 72° ESE 22:22:26 10° NNE
